When you browse on this site, cookies collect data to enhance your experience and personalize the content and advertising you see.
Visit our Privacy Policy to learn more. By continuing to use the site, you agree to this use of cookies and data.
  • In Hungary
  • List of Countries
  • For 7 days
  • Water Temperature
  • Weather Map
  • News
  • Weather Widgets
  • user-avatar
    Login

    Hourly Weather Vanadzor

    Today, 3 June, Wednesday

    Time Temperature Precipitation Wind Pressure Humidity
    00:00 +12°C° 0.5 mm 1 mps 630 mmHg 88%
    01:00 +12°C° 0 mm 2 mps 630 mmHg 85%
    02:00 +12°C° 0 mm 2 mps 630 mmHg 82%
    03:00 +12°C° 0 mm 2 mps 630 mmHg 79%
    04:00 +13°C° 0 mm 2 mps 631 mmHg 78%
    05:00 +13°C° 0 mm 2 mps 631 mmHg 76%
    06:00 +14°C° 0 mm 2 mps 631 mmHg 74%
    07:00 +16°C° 0 mm 2 mps 632 mmHg 66%
    08:00 +19°C° 0 mm 3 mps 633 mmHg 58%
    09:00 +21°C° 0 mm 3 mps 634 mmHg 50%
    10:00 +21°C° 0 mm 4 mps 634 mmHg 51%
    11:00 +21°C° 0 mm 4 mps 633 mmHg 51%
    12:00 +21°C° 0 mm 5 mps 633 mmHg 52%
    13:00 +20°C° 0.5 mm 4 mps 633 mmHg 59%
    14:00 +19°C° 0.5 mm 3 mps 633 mmHg 66%
    15:00 +17°C° 0.5 mm 2 mps 632 mmHg 73%
    16:00 +17°C° 1.1 mm 2 mps 632 mmHg 78%
    17:00 +16°C° 1.1 mm 2 mps 632 mmHg 82%
    18:00 +16°C° 1.1 mm 1 mps 632 mmHg 87%
    19:00 +14°C° 0.3 mm 1 mps 632 mmHg 87%
    20:00 +13°C° 0.3 mm 1 mps 632 mmHg 87%
    21:00 +12°C° 0.3 mm 1 mps 632 mmHg 87%
    22:00 +12°C° 0.3 mm 1 mps 632 mmHg 85%
    23:00 +12°C° 0.3 mm 1 mps 632 mmHg 84%

    Tomorrow, 4 June, Thursday

    Time Temperature Precipitation Wind Pressure Humidity
    00:00 +12°C° 0.3 mm 1 mps 632 mmHg 82%
    01:00 +11°C° 0 mm 1 mps 632 mmHg 81%
    02:00 +11°C° 0 mm 1 mps 632 mmHg 80%
    03:00 +11°C° 0 mm 1 mps 632 mmHg 79%
    04:00 +12°C° 0 mm 1 mps 632 mmHg 78%
    05:00 +13°C° 0 mm 1 mps 633 mmHg 78%
    06:00 +14°C° 0 mm 1 mps 633 mmHg 78%
    07:00 +16°C° 0 mm 1 mps 634 mmHg 69%
    08:00 +19°C° 0 mm 1 mps 634 mmHg 61%
    09:00 +21°C° 0 mm 1 mps 635 mmHg 53%
    10:00 +22°C° 0 mm 1 mps 635 mmHg 50%
    11:00 +23°C° 0 mm 2 mps 635 mmHg 48%
    12:00 +23°C° 0 mm 2 mps 635 mmHg 46%
    13:00 +22°C° 0.1 mm 3 mps 635 mmHg 49%
    14:00 +22°C° 0.1 mm 3 mps 635 mmHg 51%
    15:00 +22°C° 0.1 mm 3 mps 635 mmHg 53%
    16:00 +21°C° 0.3 mm 2 mps 635 mmHg 60%
    17:00 +21°C° 0.3 mm 2 mps 635 mmHg 66%
    18:00 +21°C° 0.3 mm 1 mps 635 mmHg 73%
    19:00 +19°C° 0.1 mm 1 mps 634 mmHg 73%
    20:00 +16°C° 0.1 mm 1 mps 634 mmHg 72%
    21:00 +14°C° 0.1 mm 2 mps 634 mmHg 72%
    22:00 +13°C° 0 mm 2 mps 634 mmHg 70%
    23:00 +12°C° 0 mm 2 mps 635 mmHg 67%

    Day after tomorrow, 5 June, Friday

    Time Temperature Precipitation Wind Pressure Humidity
    00:00 +12°C° 0 mm 2 mps 635 mmHg 65%
    01:00 +10°C° 0 mm 2 mps 635 mmHg 67%
    02:00 +10°C° 0 mm 2 mps 635 mmHg 69%
    03:00 +10°C° 0 mm 1 mps 635 mmHg 71%
    04:00 +11°C° 0 mm 1 mps 635 mmHg 72%
    05:00 +12°C° 0 mm 1 mps 636 mmHg 74%
    06:00 +13°C° 0 mm 1 mps 636 mmHg 75%
    07:00 +15°C° 0 mm 1 mps 637 mmHg 68%
    08:00 +18°C° 0 mm 1 mps 637 mmHg 61%
    09:00 +19°C° 0 mm 2 mps 638 mmHg 54%
    10:00 +19°C° 0.1 mm 2 mps 638 mmHg 52%
    11:00 +20°C° 0.1 mm 3 mps 638 mmHg 49%
    12:00 +21°C° 0.1 mm 4 mps 638 mmHg 47%
    13:00 +21°C° 0.1 mm 4 mps 638 mmHg 47%
    14:00 +21°C° 0.1 mm 4 mps 638 mmHg 47%
    15:00 +21°C° 0.1 mm 4 mps 638 mmHg 48%
    16:00 +20°C° 0.5 mm 3 mps 637 mmHg 57%
    17:00 +18°C° 0.5 mm 2 mps 637 mmHg 67%
    18:00 +18°C° 0.5 mm 1 mps 637 mmHg 76%
    19:00 +15°C° 0.1 mm 1 mps 637 mmHg 79%
    20:00 +13°C° 0.1 mm 1 mps 637 mmHg 81%
    21:00 +11°C° 0.1 mm 1 mps 637 mmHg 83%
    22:00 +11°C° 0 mm 1 mps 637 mmHg 83%
    23:00 +11°C° 0 mm 1 mps 637 mmHg 82%

    6 June, Saturday

    Time Temperature Precipitation Wind Pressure Humidity
    00:00 +10°C° 0 mm 1 mps 637 mmHg 82%
    01:00 +10°C° 0 mm 1 mps 637 mmHg 82%
    02:00 +10°C° 0 mm 1 mps 637 mmHg 82%
    03:00 +10°C° 0 mm 1 mps 637 mmHg 82%
    04:00 +11°C° 0 mm 1 mps 637 mmHg 82%
    05:00 +12°C° 0 mm 1 mps 638 mmHg 81%
    06:00 +13°C° 0 mm 1 mps 638 mmHg 80%
    07:00 +14°C° 0 mm 1 mps 638 mmHg 76%
    08:00 +16°C° 0 mm 1 mps 639 mmHg 71%
    09:00 +19°C° 0 mm 1 mps 639 mmHg 66%
    10:00 +18°C° 0.1 mm 2 mps 639 mmHg 64%
    11:00 +19°C° 0.1 mm 2 mps 639 mmHg 63%
    12:00 +20°C° 0.1 mm 2 mps 639 mmHg 61%
    13:00 +20°C° 0.3 mm 2 mps 639 mmHg 62%
    14:00 +20°C° 0.3 mm 2 mps 639 mmHg 63%
    15:00 +20°C° 0.3 mm 2 mps 638 mmHg 64%
    16:00 +20°C° 0.2 mm 2 mps 638 mmHg 69%
    17:00 +19°C° 0.2 mm 2 mps 638 mmHg 73%
    18:00 +18°C° 0.2 mm 2 mps 638 mmHg 77%
    19:00 +16°C° 0 mm 1 mps 638 mmHg 82%
    20:00 +14°C° 0 mm 1 mps 638 mmHg 86%
    21:00 +12°C° 0 mm 1 mps 637 mmHg 91%
    22:00 +12°C° 0 mm 1 mps 637 mmHg 90%
    23:00 +11°C° 0 mm 1 mps 637 mmHg 90%

    7 June, Sunday

    Time Temperature Precipitation Wind Pressure Humidity
    00:00 +11°C° 0 mm 1 mps 637 mmHg 89%
    01:00 +10°C° 0 mm 1 mps 637 mmHg 88%
    02:00 +10°C° 0 mm 1 mps 637 mmHg 88%
    03:00 +10°C° 0 mm 1 mps 637 mmHg 87%
    04:00 +11°C° 0 mm 1 mps 637 mmHg 86%
    05:00 +12°C° 0 mm 1 mps 637 mmHg 86%
    06:00 +13°C° 0 mm 1 mps 638 mmHg 85%
    07:00 +14°C° 0 mm 1 mps 638 mmHg 79%
    08:00 +16°C° 0 mm 1 mps 639 mmHg 72%
    09:00 +19°C° 0 mm 1 mps 639 mmHg 66%
    10:00 +20°C° 0 mm 1 mps 639 mmHg 63%
    11:00 +20°C° 0 mm 2 mps 639 mmHg 61%
    12:00 +21°C° 0 mm 2 mps 640 mmHg 59%
    13:00 +21°C° 0.1 mm 2 mps 639 mmHg 60%
    14:00 +21°C° 0.1 mm 2 mps 639 mmHg 62%
    15:00 +21°C° 0.1 mm 2 mps 638 mmHg 63%
    16:00 +21°C° 0.3 mm 2 mps 638 mmHg 68%
    17:00 +20°C° 0.3 mm 2 mps 638 mmHg 74%
    18:00 +20°C° 0.3 mm 1 mps 638 mmHg 79%
    19:00 +18°C° 0.4 mm 1 mps 637 mmHg 82%
    20:00 +15°C° 0.4 mm 1 mps 637 mmHg 85%
    21:00 +13°C° 0.4 mm 1 mps 637 mmHg 88%
    22:00 +13°C° 0 mm 1 mps 637 mmHg 88%
    23:00 +12°C° 0 mm 1 mps 636 mmHg 88%

    8 June, Monday

    Time Temperature Precipitation Wind Pressure Humidity
    00:00 +12°C° 0 mm 1 mps 636 mmHg 88%
    01:00 +12°C° 0 mm 1 mps 636 mmHg 90%
    02:00 +11°C° 0 mm 1 mps 636 mmHg 91%
    03:00 +11°C° 0 mm 1 mps 635 mmHg 92%
    04:00 +12°C° 0 mm 1 mps 636 mmHg 91%
    05:00 +13°C° 0 mm 1 mps 636 mmHg 91%
    06:00 +13°C° 0 mm 1 mps 636 mmHg 90%
    07:00 +15°C° 0 mm 1 mps 637 mmHg 85%
    08:00 +18°C° 0 mm 1 mps 637 mmHg 79%
    09:00 +20°C° 0 mm 1 mps 637 mmHg 73%
    10:00 +19°C° 0.2 mm 2 mps 637 mmHg 72%
    11:00 +20°C° 0.2 mm 2 mps 637 mmHg 70%
    12:00 +21°C° 0.2 mm 2 mps 637 mmHg 68%
    13:00 +21°C° 0.5 mm 2 mps 637 mmHg 70%
    14:00 +21°C° 0.5 mm 2 mps 637 mmHg 71%
    15:00 +21°C° 0.5 mm 2 mps 637 mmHg 72%
    16:00 +20°C° 0.4 mm 2 mps 636 mmHg 75%
    17:00 +20°C° 0.4 mm 2 mps 636 mmHg 78%
    18:00 +19°C° 0.4 mm 2 mps 636 mmHg 82%
    19:00 +19°C° 0.5 mm 1 mps 636 mmHg 85%
    20:00 +16°C° 0.4 mm 1 mps 636 mmHg 88%
    21:00 +14°C° 0.4 mm 1 mps 635 mmHg 92%
    22:00 +13°C° 0.1 mm 1 mps 635 mmHg 92%
    23:00 +13°C° 0.1 mm 1 mps 635 mmHg 93%
    Show more